TimePDT,TemperatureF,Dew PointF,Humidity,Sea Level PressureIn,VisibilityMPH,Wind Direction,Wind SpeedMPH,Gust SpeedMPH,PrecipitationIn,Events,Conditions,WindDirDegrees,DateUTC
12:15 AM,42.8,30.2,61,30.06,10.0,West,12.7,18.4,N/A,,Clear,260,2013-03-21 07:15:00
12:35 AM,41.0,30.2,65,30.06,10.0,West,9.2,16.1,N/A,,Clear,270,2013-03-21 07:35:00
12:55 AM,41.0,30.2,65,30.05,10.0,West,9.2,-,N/A,,Clear,270,2013-03-21 07:55:00
1:15 AM,41.0,30.2,65,30.05,10.0,WSW,10.4,-,N/A,,Clear,240,2013-03-21 08:15:00
1:35 AM,42.8,30.2,61,30.04,10.0,SW,11.5,17.3,N/A,,Clear,220,2013-03-21 08:35:00
1:55 AM,42.8,28.4,57,30.04,10.0,WSW,10.4,16.1,N/A,,Clear,240,2013-03-21 08:55:00
2:15 AM,42.8,30.2,61,30.04,10.0,WSW,9.2,-,N/A,,Clear,240,2013-03-21 09:15:00
2:35 AM,42.8,30.2,61,30.04,10.0,SW,11.5,17.3,N/A,,Clear,230,2013-03-21 09:35:00
2:55 AM,41.0,30.2,65,30.03,10.0,WSW,8.1,-,N/A,,Clear,240,2013-03-21 09:55:00
3:15 AM,41.0,30.2,65,30.02,10.0,West,9.2,17.3,N/A,,Clear,260,2013-03-21 10:15:00
3:35 AM,41.0,28.4,61,30.02,10.0,SW,4.6,-,N/A,,Clear,220,2013-03-21 10:35:00
3:55 AM,41.0,26.6,57,30.01,10.0,SW,5.8,-,N/A,,Clear,230,2013-03-21 10:55:00
4:15 AM,39.2,26.6,61,30.01,10.0,WSW,4.6,-,N/A,,Clear,240,2013-03-21 11:15:00
4:35 AM,39.2,26.6,61,30.01,10.0,ENE,4.6,-,N/A,,Clear,60,2013-03-21 11:35:00
4:55 AM,37.4,23.0,56,30.01,10.0,Calm,Calm,-,N/A,,Clear,0,2013-03-21 11:55:00
5:15 AM,35.6,23.0,60,30.01,10.0,East,3.5,-,N/A,,Clear,90,2013-03-21 12:15:00
5:55 AM,35.6,19.4,52,30.00,10.0,ESE,3.5,-,N/A,,Clear,120,2013-03-21 12:55:00
6:15 AM,33.8,17.6,52,30.00,10.0,East,3.5,-,N/A,,Clear,100,2013-03-21 13:15:00
6:35 AM,32.0,15.8,51,30.00,10.0,Calm,Calm,-,N/A,,Clear,0,2013-03-21 13:35:00
6:55 AM,33.8,14.0,44,30.00,10.0,Calm,Calm,-,N/A,,Clear,0,2013-03-21 13:55:00
7:15 AM,32.0,12.2,44,30.01,10.0,Calm,Calm,-,N/A,,Clear,0,2013-03-21 14:15:00
7:35 AM,35.6,12.2,38,30.01,10.0,South,3.5,-,N/A,,Clear,180,2013-03-21 14:35:00
7:55 AM,37.4,8.6,30,30.01,10.0,West,3.5,-,N/A,,Clear,260,2013-03-21 14:55:00
8:15 AM,41.0,10.4,29,30.02,10.0,Calm,Calm,-,N/A,,Clear,0,2013-03-21 15:15:00
8:35 AM,41.0,10.4,29,30.02,10.0,Calm,Calm,-,N/A,,Clear,0,2013-03-21 15:35:00
8:55 AM,42.8,12.2,29,30.01,10.0,West,5.8,-,N/A,,Clear,270,2013-03-21 15:55:00
9:35 AM,50.0,6.8,17,30.02,10.0,Calm,Calm,-,N/A,,Clear,0,2013-03-21 16:35:00
9:55 AM,51.8,5.0,15,30.02,10.0,Calm,Calm,-,N/A,,Clear,0,2013-03-21 16:55:00
10:15 AM,53.6,3.2,13,30.02,10.0,Calm,Calm,-,N/A,,Clear,0,2013-03-21 17:15:00
10:35 AM,55.4,-0.4,10,30.01,10.0,Calm,Calm,-,N/A,,Clear,0,2013-03-21 17:35:00
10:55 AM,55.4,-4.0,9,30.01,10.0,NNE,3.5,-,N/A,,Clear,30,2013-03-21 17:55:00
11:15 AM,57.2,-0.4,10,30.01,10.0,Calm,Calm,-,N/A,,Clear,0,2013-03-21 18:15:00
11:35 AM,59.0,-0.4,9,30.00,10.0,West,8.1,-,N/A,,Clear,270,2013-03-21 18:35:00
11:55 AM,59.0,-2.2,8,30.00,10.0,West,8.1,-,N/A,,Clear,260,2013-03-21 18:55:00
12:15 PM,60.8,3.2,10,30.00,10.0,Calm,Calm,-,N/A,,Clear,0,2013-03-21 19:15:00
12:35 PM,60.8,14.0,16,30.00,10.0,ENE,11.5,-,N/A,,Clear,60,2013-03-21 19:35:00
12:55 PM,60.8,14.0,16,30.00,10.0,East,3.5,9.2,N/A,,Clear,100,2013-03-21 19:55:00
1:15 PM,59.0,6.8,13,29.99,10.0,West,11.5,-,N/A,,Clear,280,2013-03-21 20:15:00
1:35 PM,60.8,-0.4,8,29.98,10.0,West,11.5,-,N/A,,Clear,270,2013-03-21 20:35:00
1:55 PM,60.8,1.4,9,29.97,10.0,West,10.4,-,N/A,,Clear,270,2013-03-21 20:55:00
2:15 PM,60.8,5.0,11,29.97,10.0,West,11.5,-,N/A,,Clear,260,2013-03-21 21:15:00
2:35 PM,60.8,6.8,12,29.96,10.0,West,13.8,-,N/A,,Clear,260,2013-03-21 21:35:00
2:55 PM,59.0,10.4,15,29.96,10.0,West,12.7,16.1,N/A,,Clear,270,2013-03-21 21:55:00
3:15 PM,59.0,10.4,15,29.95,10.0,WSW,10.4,-,N/A,,Clear,240,2013-03-21 22:15:00
3:35 PM,59.0,8.6,14,29.95,10.0,West,11.5,16.1,N/A,,Clear,260,2013-03-21 22:35:00
3:55 PM,59.0,14.0,17,29.95,10.0,West,12.7,-,N/A,,Clear,260,2013-03-21 22:55:00
4:15 PM,57.2,12.2,17,29.95,10.0,West,10.4,-,N/A,,Clear,260,2013-03-21 23:15:00
4:35 PM,55.4,17.6,23,29.95,10.0,West,10.4,-,N/A,,Clear,260,2013-03-21 23:35:00
4:55 PM,55.4,19.4,25,29.94,10.0,West,13.8,-,N/A,,Clear,260,2013-03-21 23:55:00
5:15 PM,53.6,24.8,33,29.94,10.0,West,10.4,-,N/A,,Clear,260,2013-03-22 00:15:00
5:35 PM,53.6,19.4,26,29.94,10.0,WSW,10.4,16.1,N/A,,Clear,250,2013-03-22 00:35:00
5:55 PM,53.6,23.0,30,29.94,10.0,West,11.5,-,N/A,,Clear,260,2013-03-22 00:55:00
6:15 PM,51.8,19.4,28,29.94,10.0,WSW,5.8,-,N/A,,Clear,240,2013-03-22 01:15:00
6:35 PM,50.0,28.4,43,29.94,10.0,WSW,5.8,-,N/A,,Clear,240,2013-03-22 01:35:00
6:55 PM,50.0,21.2,32,29.94,10.0,WSW,5.8,-,N/A,,Clear,250,2013-03-22 01:55:00
7:15 PM,48.2,19.4,32,29.94,10.0,WSW,5.8,-,N/A,,Clear,240,2013-03-22 02:15:00
7:35 PM,46.4,21.2,37,29.94,10.0,SSW,3.5,-,N/A,,Clear,210,2013-03-22 02:35:00
7:55 PM,44.6,21.2,39,29.92,10.0,SW,4.6,-,N/A,,Clear,230,2013-03-22 02:55:00
8:15 PM,42.8,23.0,46,29.93,10.0,Calm,Calm,-,N/A,,Clear,0,2013-03-22 03:15:00
8:35 PM,39.2,23.0,52,29.92,10.0,Calm,Calm,-,N/A,,Clear,0,2013-03-22 03:35:00
8:55 PM,41.0,28.4,61,29.92,10.0,WSW,6.9,-,N/A,,Clear,250,2013-03-22 03:55:00
9:15 PM,42.8,28.4,57,29.92,10.0,WSW,6.9,-,N/A,,Clear,250,2013-03-22 04:15:00
9:35 PM,42.8,26.6,53,29.92,10.0,West,6.9,-,N/A,,Clear,260,2013-03-22 04:35:00
9:55 PM,41.0,28.4,61,29.92,10.0,WSW,8.1,-,N/A,,Clear,250,2013-03-22 04:55:00
10:15 PM,41.0,28.4,61,29.92,10.0,WSW,4.6,-,N/A,,Clear,250,2013-03-22 05:15:00
10:35 PM,39.2,28.4,65,29.92,10.0,West,8.1,-,N/A,,Clear,260,2013-03-22 05:35:00
10:55 PM,39.2,28.4,65,29.91,10.0,WSW,5.8,-,N/A,,Clear,250,2013-03-22 05:55:00
11:15 PM,37.4,26.6,65,29.91,10.0,WSW,5.8,-,N/A,,Clear,250,2013-03-22 06:15:00
11:35 PM,39.2,19.4,45,29.89,10.0,WSW,6.9,-,N/A,,Clear,250,2013-03-22 06:35:00
11:55 PM,41.0,10.4,29,29.88,10.0,WSW,10.4,17.3,N/A,,Clear,240,2013-03-22 06:55:00